Flag for U.S.A. Weather past 2 weeks in Bismarck, North Dakota, U.S.A.

Now
54 °F

Sunny.


Feels Like: 52 °F
Forecast: 34 / 63 °F
Wind: 7 mph from North

Location: Bismarck Municipal Airport

Current Time: Sep 14, 2014 at 9:01:52 PM

Latest Report: Sep 14, 2014 at 7:52 PM


Visibility: 10 mi

Pressure: 30.19 "Hg

Humidity: 47%

Dew point: 34 °F

Location of BismarckLocation

Historic Weather in Bismarck — Graph

°F

Bismarck temperature yesterday

Maximum temperature yesterday: 66 °F (at 1:52 PM)
Minimum temperature yesterday: 38 °F (at 12:52 AM)
Average temperature yesterday: 50 °F

Past Weeks' High & Low Weather Summary

 TemperatureHumidityPressure
High90 °F (Sep 8, 4:52 PM)100% (Sep 1, 3:52 AM)30.54 "Hg (Sep 1, 3:52 AM)
Low36 °F (Sep 12, 9:52 PM)23% (Sep 8, 4:52 PM)29.57 "Hg (Sep 4, 12:52 AM)
Average58 °F70%30.00 "Hg
* Reported Aug 30 7:52 PM — Sep 14 7:52 PM, Bismarck, Weather by CustomWeather, © 2014

Note: Actual official high and low records may vary slightly from our data, if they occured in-between our weather recording intervals... More about our weather records

Advertising

Bismarck weather history for previous 24 hours

 ConditionsComfort  
Time TempWeatherWind HumidityBarometerVisibility
7:52 PM
Sep 14
54 °FSunny.7 mph47%30.19 "Hg10 mi
6:52 PM56 °FSunny.8 mph42%30.18 "Hg10 mi
5:52 PM58 °FSunny.10 mph38%30.16 "Hg10 mi
4:52 PM60 °FScattered clouds.9 mph36%30.16 "Hg10 mi
3:52 PM61 °FScattered clouds.6 mph35%30.16 "Hg10 mi
2:52 PM58 °FOvercast.6 mph44%30.17 "Hg10 mi
1:52 PM57 °FScattered clouds.5 mph46%30.19 "Hg10 mi
12:52 PM55 °FBroken clouds.3 mph57%30.22 "Hg10 mi
11:52 AM53 °FScattered clouds.6 mph64%30.22 "Hg10 mi
10:52 AM48 °FPassing clouds.6 mph74%30.22 "Hg10 mi
9:52 AM48 °FSunny.3 mph71%30.21 "Hg10 mi
8:52 AM43 °FSunny.5 mph82%30.21 "Hg10 mi
7:52 AM36 °FClear.3 mph89%30.20 "Hg10 mi
6:52 AM38 °FClear.9 mph93%30.19 "Hg10 mi
5:52 AM39 °FClear.7 mph89%30.18 "Hg10 mi
4:52 AM40 °FClear.8 mph86%30.18 "Hg10 mi
3:52 AM40 °FClear.7 mph86%30.16 "Hg10 mi
2:52 AM41 °FClear.7 mph82%30.16 "Hg10 mi
1:52 AM43 °FClear.10 mph79%30.14 "Hg10 mi
12:52 AM43 °FClear.8 mph79%30.13 "Hg10 mi
11:52 PM
Sep 13
44 °FClear.8 mph76%30.13 "Hg10 mi
10:52 PM48 °FClear.10 mph68%30.13 "Hg10 mi
9:52 PM49 °FClear.9 mph66%30.12 "Hg10 mi
Weather by CustomWeather, © 2014

See weather overviewHow to use our weather pages